Аэропорт
Запорожье (UKDE)

 UKDE / OZH
vACC Украина
Днепропетровск (UKDV)
Днепропетровск (UKDV)
 47.86700, 35.31570  / 373 ft

 UKDE 161630Z 00000MPS CAVOK 26/11 Q1011 R20L/090070 NOSIG
 TAF UKDE 161402Z 1615/1624 12003MPS CAVOK TX26/1615Z TN17/1624Z

Запорожье (укр. Запоріжжя) — международный аэропорт города Запорожье (Украина) обеспечивающий взлёт и посадку на двух взлётно-посадочных полосах (искусственной и грунтовой). Работает в круглосуточном режиме. Расположен в черте города к востоку от центра на расстоянии около 15 км от центральной части Запорожья. Эксплуатантом аэропорта является коммунальное предприятие «Международный аэропорт Запорожье».

Сценарии и схемы аэропорта Вы можете найти на сайте vACC Украина.



2020 © VATRUS division (Privacy Policy)